This is the latest recevied weather packets stored in our database for station/object K0WXC-1. If no packets are shown the sender has not sent any weather packets the latest 10 day(s).
| Time | Temp. | Humidity | Pressure | Rain* | Wind** | Luminosity | Snow |
|---|---|---|---|---|---|---|---|
| 1778094388 | 13.33° C | 34% | 1004.7 hPa | 0 mm | 2.24 m/s, 320° | - | - |
| 1778094328 | 13.33° C | 36% | 1004.6 hPa | 0 mm | 0.89 m/s, 267° | - | - |
| 1778094268 | 13.33° C | 36% | 1004.6 hPa | 0 mm | 0.89 m/s, 267° | - | - |
| 1778094208 | 13.33° C | 36% | 1004.6 hPa | 0 mm | 0.89 m/s, 267° | - | - |
| 1778094148 | 13.33° C | 36% | 1004.6 hPa | 0 mm | 0.89 m/s, 267° | - | - |
| 1778094088 | 13.33° C | 36% | 1004.6 hPa | 0 mm | 0.89 m/s, 267° | - | - |
| 1778094028 | 13.33° C | 34% | 1004.7 hPa | 0 mm | 2.24 m/s, 4° | - | - |
| 1778093968 | 13.33° C | 34% | 1004.7 hPa | 0 mm | 2.24 m/s, 4° | - | - |
| 1778093908 | 13.33° C | 34% | 1004.7 hPa | 0 mm | 2.24 m/s, 4° | - | - |
| 1778093848 | 13.33° C | 34% | 1004.7 hPa | 0 mm | 2.24 m/s, 4° | - | - |
| 1778093788 | 13.33° C | 34% | 1004.7 hPa | 0 mm | 2.24 m/s, 4° | - | - |
| 1778093728 | 13.33° C | 35% | 1004.7 hPa | 0 mm | 2.68 m/s, 354° | - | - |
| 1778093669 | 13.33° C | 35% | 1004.7 hPa | 0 mm | 2.68 m/s, 354° | - | - |
| 1778093608 | 13.33° C | 35% | 1004.7 hPa | 0 mm | 2.68 m/s, 354° | - | - |
| 1778093548 | 13.33° C | 35% | 1004.7 hPa | 0 mm | 2.68 m/s, 354° | - | - |
| 1778093488 | 13.33° C | 35% | 1004.7 hPa | 0 mm | 2.68 m/s, 354° | - | - |
| 1778093428 | 13.33° C | 37% | 1004.6 hPa | 0 mm | 1.79 m/s, 341° | - | - |
| 1778093368 | 13.33° C | 37% | 1004.6 hPa | 0 mm | 1.79 m/s, 341° | - | - |
| 1778093308 | 13.33° C | 37% | 1004.6 hPa | 0 mm | 1.79 m/s, 341° | - | - |
| 1778093248 | 13.33° C | 37% | 1004.6 hPa | 0 mm | 1.79 m/s, 341° | - | - |
| 1778093188 | 13.33° C | 37% | 1004.6 hPa | 0 mm | 1.79 m/s, 341° | - | - |
| 1778093128 | 13.89° C | 37% | 1004.7 hPa | 0 mm | 3.13 m/s, 313° | - | - |
| 1778093068 | 13.89° C | 37% | 1004.7 hPa | 0 mm | 3.13 m/s, 313° | - | - |
| 1778093008 | 13.89° C | 37% | 1004.7 hPa | 0 mm | 3.13 m/s, 313° | - | - |
| 1778092948 | 13.89° C | 37% | 1004.7 hPa | 0 mm | 3.13 m/s, 313° | - | - |
* Rain latest hour (hover to see other rain measurements)
** Current wind speed in m/s (hover to see current wind gust speed)